Regional Weather Roundup
Issued by NWS

Home | Current Version | Previous Version | Text Only | Print | Product List | Glossary On
Versions: 1 2 3 4 5 6 7 8 9 10 11 12 13 14 15 16 17 18 19 20 21 22 23 24 25 26 27 28 29 30 31 32 33 34 35 36 37 38 39 40 41 42 43 44 45 46 47 48 49 50
000
ASUS43 KMPX 182310
RWRMN
WEATHER ROUNDUP FOR MINNESOTA
NATIONAL WEATHER SERVICE TWIN CITIES/CHANHASSEN MN
600 PM CDT MON SEP 18 2017


NOTE: "FAIR" INDICATES FEW OR NO CLOUDS BELOW 12,000 FEET WITH NO
SIGNIFICANT WEATHER AND/OR OBSTRUCTIONS TO VISIBILITY. N/A MEANS
CURRENT SKY AND/OR WEATHER CONDITIONS ARE NOT AVAILABLE.

MNZ060>063-068>070-190000-
   Twin Cities Metro

CITY           SKY/WX    TMP DP  RH WIND       PRES   REMARKS
TWIN CITIES    CLOUDY    57  54  89 SE12      29.98S
ST PAUL        CLOUDY    56  53  90 E9        29.99F
CRYSTAL        CLOUDY    56  50  80 E7        29.96F
BLAINE         CLOUDY    57  55  94 SE10      29.98S
LAKEVILLE      DRIZZLE   55  55 100 E7        29.97S
EDEN PRAIRIE   CLOUDY    57  54  89 E9        29.95F
SOUTH ST PAUL  CLOUDY    56  54  95 SE6       29.98F
LAKE ELMO      CLOUDY    55  54  94 E6        30.00F
$$
MNZ001>005-007-008-013>017-022>024-027-028-190000-
   Northwest Minnesota

CITY           SKY/WX    TMP DP  RH WIND       PRES   REMARKS
BEMIDJI        CLOUDY    58  52  81 S14         N/A
HALLOCK        CLOUDY    63  54  72 E9        29.83F
ROSEAU           N/A     61  54  77 SE6       29.88S
WARROAD        CLOUDY    57  54  88 E3        29.89S
THIEF RVR FALL PTSUNNY   66  55  67 SE12      29.86S
CROOKSTON      PTSUNNY   66  55  68 S16       29.84R
FOSSTON        CLOUDY    61  54  77 SE12      29.88R
DETROIT LAKES  CLOUDY    57  54  88 SE12      29.89F
MOORHEAD       CLOUDY    64  55  72 SE13G18   29.85S HAZE
PARK RAPIDS    CLOUDY    58  53  84 SE12      29.91S
MAHNOMEN       CLOUDY    57  54  87 SE12G17   29.87F
$$
MNZ006-009>011-018-025>026-190000-
   North Central Minnesota

CITY           SKY/WX    TMP DP  RH WIND       PRES   REMARKS
BAUDETTE       PTSUNNY   60  54  80 SE9       29.89F
FLAG ISLAND    PTSUNNY   61  52  72 S9        29.89R
INTL FALLS     CLOUDY    61  50  67 SE6       29.92F
WASKISH        PTSUNNY   63  52  67 SE9       29.89S
BIG FORK       CLOUDY    61  50  67 S7        29.94S
LONGVILLE      CLOUDY    57  52  82 SE5       29.93F
GRAND RAPIDS   CLOUDY    57  50  77 SE12      29.97F
CRANE LAKE     CLOUDY    59  52  77 CALM      29.98S
ORR            CLOUDY    61  46  59 S8        29.94R
COOK           CLOUDY    59  48  67 S9        29.98S
WALKER         CLOUDY    55  52  89 SE6       29.92F
$$
MNZ012-019>021-037-190000-
   Northeast Minnesota

CITY           SKY/WX    TMP DP  RH WIND       PRES   REMARKS
DULUTH         CLOUDY    57  50  77 S12       30.00S
ELY            CLOUDY    57  46  67 S5        30.00S
HIBBING        CLOUDY    55  48  77 S6        29.98R
EVELETH        CLOUDY    58  46  64 SE6       29.99F
DULUTH HARBOR  CLOUDY    61  54  77 S9        30.01S
TWO HARBORS    CLOUDY    61  54  77 SE6       29.99F
SILVER BAY     CLOUDY    57  54  88 E8        30.00S
GRAND MARAIS     N/A     58  52  80 E6        30.03F
G MARAIS ARPRT CLOUDY    52  45  76 CALM      30.05F
$$
MNZ029>031-032-039>041-046>048-054>057-064-190000-
   West Central Minnesota

CITY           SKY/WX    TMP DP  RH WIND       PRES   REMARKS
FERGUS FALLS   CLOUDY    61  55  82 SE13      29.86F
WHEATON        SUNNY     66  57  72 SE15      29.85S
MORRIS         PTSUNNY   64  57  77 SE13      29.86F
ALEXANDRIA     CLOUDY    59  56  89 SE13      29.91F
ELBOW LAKE     PTSUNNY   61  57  87 E15       29.87F
WADENA         CLOUDY    57  54  88 SE7       29.91R
GLENWOOD       CLOUDY    59  57  94 SE9G17    29.91S
APPLETON       CLOUDY    66  57  72 SE10      29.86S
BENSON         CLOUDY    63  57  82 S9        29.90S
ORTONVILLE     CLOUDY    66  59  77 NE13      29.85S
MADISON        CLOUDY    70  61  73 S9        29.86S
WILLMAR        CLOUDY    61  57  88 SE9       29.92S
$$
MNZ033>034-036-042>043-049>051-058-059-190000-
   Central Minnesota

CITY           SKY/WX    TMP DP  RH WIND       PRES   REMARKS
ST CLOUD       CLOUDY    56  54  93 SE12      29.95S
PAYNESVILLE    CLOUDY    58  56  93 SE9       29.93F
AITKIN         CLOUDY    57  52  82 SE10      29.95S
PINE RIVER     CLOUDY    55  48  76 SE8       29.96F
BRAINERD       CLOUDY    58  52  80 SE10      29.94F
STAPLES        CLOUDY    57  52  82 SE8       29.92S
LONG PRAIRIE   CLOUDY    55  54  94 E14       29.93S
LITTLE FALLS   CLOUDY    55  48  76 SE13      29.95R
LITCHFIELD     CLOUDY    57  57 100 SE9       29.94S FOG
BUFFALO        CLOUDY    57  52  85 E7        29.96F
MAPLE LAKE     CLOUDY    58  56  93 SE6       29.96F
HUTCHINSON     DRIZZLE   58  58  99 SE8       29.95S
$$
MNZ037-044-045-052-053-190000-
   East Central Minnesota

CITY           SKY/WX    TMP DP  RH WIND       PRES   REMARKS
PRINCETON      CLOUDY    57  54  88 SE8       29.97F
MORA           CLOUDY    54  46  76 SE6       30.01S
CAMBRIDGE      CLOUDY    57  48  72 SE6       29.99S
RUSH CITY      CLOUDY    55  49  81 SE10G17   30.00S
MOOSE LAKE     CLOUDY    55  46  71 S7        29.98S
HINCKLEY       CLOUDY    55  50  82 SE5       30.00S
CLOQUET        CLOUDY    57  46  67 S8        30.00R
MCGREGOR       CLOUDY    57  50  77 SE12      29.97S
$$
MNZ071>073-080-081-089-090-097-098-190000-
   Southwest Minnesota

CITY           SKY/WX    TMP DP  RH WIND       PRES   REMARKS
MONTEVIDEO     CLOUDY    64  57  77 S12       29.88F
GRANITE FALLS  PTSUNNY   65  60  82 E7        29.90S
CANBY          MOSUNNY   69  60  74 S6        29.88R
MARSHALL       CLOUDY    64  61  88 SE9       29.88S
REDWOOD FALLS  CLOUDY    63  58  83 SE9       29.90F
OLIVIA         CLOUDY    61  57  88 SE8       29.90F
PIPESTONE      MOSUNNY   72  61  68 S6        29.87S
WINDOM         CLOUDY    63  61  94 SE7       29.91S
WORTHINGTON    CLOUDY    65  63  93 E6        29.90S
JACKSON        CLOUDY    61  61 100 SE8       29.92S FOG
TRACY          CLOUDY    66  63  89 SE8       29.89S
SLAYTON        CLOUDY    66  62  86 E6        29.90S
$$
MNZ065>067-074>077-082>085-091>093-190000-
   South Central Minnesota

CITY           SKY/WX    TMP DP  RH WIND       PRES   REMARKS
MANKATO        LGT RAIN  59  57  93 SE12      29.94S FOG
NEW ULM        CLOUDY    61  57  88 SE9       29.93S
ST JAMES       DRIZZLE   61  61 100 E8        29.93S
FAIRMONT       LGT RAIN  62  61  96 SE7       29.93S
GLENCOE        CLOUDY    59  59 100 E8        29.94F
FARIBAULT      LGT RAIN  57  57 100 E7        29.96F
OWATONNA       CLOUDY    59  57  94 SE8       29.96S
WASECA         LGT RAIN  55  55 100 E8        29.96F
ALBERT LEA     RAIN      63  63 100 SE3       29.95S
$$
MNZ078>079-086>088-094>096-190000-
   Southeast Minnesota

CITY           SKY/WX    TMP DP  RH WIND       PRES   REMARKS
ROCHESTER      CLOUDY    59  56  89 E10       29.99F
RED WING       CLOUDY    57  54  88 E7        29.98F
STANTON        CLOUDY    58  55  90 E6        29.96F
DODGE CENTER   LGT RAIN  57  55  94 E6        29.97F
WINONA         CLOUDY    59  55  88 E3        30.01F
AUSTIN         LGT RAIN  61  57  88 SE6       29.95F
PRESTON        CLOUDY    58  55  90 E5        30.00F
$$
ABBREVIATIONS USED IN REMARKS
   TC - TEMPERATURES IN CELSIUS
  WCI - WIND CHILL INDEX
   HX - HEAT INDEX
  VSB - VISIBILITY
$$




USA.gov is the U.S. government's official web portal to all federal, state and local government web resources and services.